{"data":{"norad_id":67838,"epoch":"2026-05-24T20:55:43.796352Z","epoch_age_seconds":86354,"freshness":"FRESH","line1":"1 67838U 26033T   26144.87203468  .00007601  00000+0  28545-3 0  9991","line2":"2 67838  43.0034 196.9381 0001603 280.4129  79.6542 15.27580161 16322","mean_motion":15.27580161,"eccentricity":0.0001603,"inclination_deg":43.0034,"raan_deg":196.9381,"arg_perigee_deg":280.4129,"mean_anomaly_deg":79.6542,"bstar":0.00028545,"rev_number":1632,"period_min":94.266738778365,"perigee_km":481.94876589386,"apogee_km":484.14846200169,"semimajor_km":6861.1856139478,"source":"CELESTRAK","updated_at":"2026-05-25T13:38:21.701023Z"}}